#timestamp,LO_Frequency,Hit,StdDev 
1634457615.1,286047011.3,N
1634457635.8,286047006.3,N
1634457655.7,286047010.6,N
1634457675.5,286047009.9,N
1634457695.3,286047010.2,N
1634457715.2,286047009.6,N
1634457735.0,286047012.7,N
1634457735.9,286047012.7,N
1634457755.8,286047016.0,N
1634457775.6,286047019.8,N
1634457795.4,286047023.2,N
1634457815.3,286047025.6,N
1634457835.1,286047037.5,N
1634457855.9,286047028.9,N
1634457875.7,286047030.5,N
1634457895.5,286047030.6,N
1634457915.4,286047030.0,N
1634457935.2,286047027.9,N
1634457955.0,286047024.4,N
1634457955.9,286047024.4,N
1634457975.8,286047021.4,N
1634457995.6,286047037.5,N
1634458015.5,286047021.3,N
1634458035.3,286047021.5,N
1634458055.1,286047018.1,N
1634458075.9,286047021.3,N
1634458095.7,286047020.0,N
1634458115.5,286047017.5,N
1634458135.4,286047017.9,N
1634458155.2,286047019.6,N
1634458175.1,286047013.5,N
1634458176.0,286047013.5,N
1634458195.8,286047011.3,N
1634458215.6,286047007.3,N
1634458235.5,286047003.2,N
1634458255.3,286047001.4,N
1634458275.1,286047011.9,N
1634458295.9,286046999.2,N
1634458315.7,286046998.9,N
1634458335.6,286046999.5,N
1634458355.4,286046994.5,N
1634458375.2,286046992.8,N
1634458395.1,286046991.6,N
1634458396.0,286046991.6,N
1634458415.8,286046992.6,N
1634458435.7,286046991.3,N
1634458455.5,286046992.2,N
1634458475.3,286046999.6,N
1634458495.2,286047000.6,N
1634458515.0,286047001.8,N
1634458515.9,286047001.8,N
1634458535.8,286046998.7,N
1634458555.6,286046997.3,N
1634458575.4,286046998.2,N
1634458595.3,286046998.2,N
1634458615.1,286046998.8,N
1634458635.9,286046991.9,N
1634458655.7,286046987.8,N
1634458675.5,286046985.6,N
1634458695.4,286046985.2,N
1634458715.2,286046980.1,N
1634458735.1,286046973.0,Y
1634458736.0,286046973.0,P
1634458755.8,286046974.0,N
1634458775.6,286046973.7,N
1634458795.5,286046971.9,N
1634458815.3,286046972.3,N
1634458835.2,286046970.0,Y
1634458855.9,286046994.6,P
1634458875.7,286046996.3,N
1634458895.6,286046994.7,N
1634458915.4,286046996.2,N
1634458935.2,286046991.4,N
1634458955.1,286046991.6,N
1634458956.0,286046991.6,N
1634458975.8,286046988.6,N
1634458995.7,286046992.7,N
1634459015.5,286046993.4,N
1634459035.3,286046996.3,N
1634459055.2,286046997.4,N
1634459075.0,286047002.7,N
1634459075.9,286047002.7,N
1634459095.8,286047002.3,N
1634459115.6,286047005.8,N
1634459135.4,286047006.5,N
1634459155.3,286047006.9,N
1634459175.1,286047007.2,N
1634459195.8,286047005.1,N
1634459215.7,286047001.2,N
1634459235.5,286046993.6,N
1634459255.4,286046985.6,N
1634459275.2,286046981.1,N
1634459295.0,286046981.7,N
1634459295.9,286046981.7,N
1634459315.8,286046975.8,N
1634459335.6,286046970.0,Y
1634459355.4,286046976.0,P
1634459375.3,286046976.6,N
1634459395.1,286046980.4,N
1634459415.9,286046981.2,N
1634459435.7,286046984.4,N
1634459455.5,286046986.9,N
1634459475.4,286046992.0,N
1634459495.2,286046993.3,N
1634459515.0,286046998.4,N
1634459515.9,286046998.4,N
1634459535.8,286047004.5,N
1634459555.6,286047009.6,N
1634459575.5,286047012.7,N
1634459595.3,286047015.7,N
1634459615.1,286047017.5,N
1634459635.9,286047019.9,N
1634459655.7,286047018.2,N
1634459675.5,286047018.0,N
1634459695.4,286047013.5,N
1634459715.2,286047009.1,N
1634459735.1,286047002.9,N
1634459736.0,286047002.9,N
1634459755.8,286047000.6,N
1634459775.6,286046998.9,N
1634459795.5,286047002.7,N
1634459815.3,286047002.3,N
1634459835.1,286047002.0,N
1634459855.9,286047004.8,N
1634459875.7,286047004.9,N
1634459895.6,286047008.1,N
1634459915.4,286047014.9,N
1634459935.2,286047013.1,N
1634459955.1,286047012.0,N
1634459956.0,286047012.0,N
1634459975.8,286047012.5,N
1634459995.6,286047007.8,N
1634460015.5,286047007.3,N
1634460035.3,286047003.0,N
1634460055.2,286047004.1,N
1634460075.9,286047001.5,N
1634460095.7,286047000.1,N
1634460115.6,286047002.0,N
1634460135.4,286047005.7,N
1634460155.2,286047004.7,N
1634460175.1,286047005.5,N
1634460176.0,286047005.5,N
1634460195.8,286047007.1,N
1634460215.7,286047008.3,N
1634460235.5,286047004.5,N
1634460255.3,286047005.9,N
1634460275.2,286047005.1,N
1634460295.0,286047002.5,N
1634460295.9,286047002.5,N
1634460315.8,286047003.8,N
1634460335.6,286047005.6,N
1634460355.4,286047007.4,N
1634460375.3,286047005.7,N
1634460395.1,286047002.3,N
1634460415.8,286047002.9,N
1634460435.7,286047008.8,N
1634460455.5,286047007.7,N
1634460475.4,286047015.2,Y
1634460495.2,286047014.9,P
1634460515.0,286047017.8,P
1634460515.9,286047017.8,P
1634460535.8,286047019.2,Y
1634460555.6,286047009.2,P
1634460575.5,286047009.0,P
1634460595.3,286047000.4,N
1634460615.1,286046998.9,N
1634460635.9,286046993.5,N
1634460655.7,286046992.9,N
1634460675.6,286046986.3,N
1634460695.4,286046984.7,N
1634460715.2,286046993.8,N
1634460735.1,286047010.0,N
1634460736.0,286047010.0,N
1634460755.8,286047027.8,N
1634460775.6,286047039.6,Y
1634460795.5,286047042.2,P
1634460815.3,286047044.2,N
1634460835.2,286047034.6,N
1634460855.0,286047027.9,N
1634460855.9,286047027.9,N
1634460875.8,286047024.2,N
1634460895.6,286047023.4,N
1634460915.5,286047021.0,N
1634460935.3,286047017.4,N
1634460955.1,286047013.1,N
1634460975.9,286047013.2,N
1634460995.7,286047013.4,N
1634461015.6,286047009.3,N
1634461035.4,286047003.2,N
1634461055.3,286047004.1,N
1634461075.1,286046990.8,N
1634461095.8,286046984.0,N
1634461115.7,286046980.4,N
1634461135.5,286046975.2,N
1634461155.4,286046974.1,N
1634461175.2,286046975.7,N
1634461195.1,286046981.3,N
1634461196.0,286046981.3,N
